SIA186 WSSS-VVTS

Flight info

Callsign SIA186
Flight time N/A
Altitude 36000
Route VMR6A VMR M771 DUDIS/K0928F360 L644 CN/K0828F190 W9 NIXIV NIXIV5J
Aircraft B78X/H-SDE1E2E3GHIJ3J5M1P2RWXYZ/LB1D1

Departure

Time 2026-05-01 15:21
Airport Singapore Changi Airport (WSSS)

Arrival

Time N/A
Airport Tan Son Nhat International Airport (VVTS)
Time Latitude Longitude Altitude Speed Heading
2026-05-01 15:03 1.35775 103.99395 31 ft 0 kts 193°
2026-05-01 15:09 1.35780 103.99396 30 ft 4 kts 194°
2026-05-01 15:09 1.35806 103.99404 28 ft 5 kts 198°
2026-05-01 15:09 1.35832 103.99412 28 ft 5 kts 199°
2026-05-01 15:10 1.35854 103.99420 29 ft 5 kts 187°
2026-05-01 15:10 1.35890 103.99393 28 ft 4 kts 113°
2026-05-01 15:10 1.35891 103.99391 27 ft 7 kts 113°
2026-05-01 15:12 1.35873 103.99432 30 ft 8 kts 113°
2026-05-01 15:12 1.35847 103.99492 31 ft 10 kts 114°
2026-05-01 15:13 1.35682 103.99481 32 ft 9 kts 203°
2026-05-01 15:14 1.35554 103.99426 32 ft 11 kts 203°
2026-05-01 15:14 1.35482 103.99395 32 ft 12 kts 203°
2026-05-01 15:14 1.35317 103.99326 32 ft 14 kts 203°
2026-05-01 15:15 1.35119 103.99242 30 ft 17 kts 203°
2026-05-01 15:15 1.34900 103.99153 32 ft 17 kts 202°
2026-05-01 15:16 1.34665 103.99055 32 ft 19 kts 202°
2026-05-01 15:16 1.34420 103.98952 32 ft 20 kts 202°
2026-05-01 15:17 1.34208 103.98863 32 ft 20 kts 202°
2026-05-01 15:18 1.33769 103.98678 32 ft 21 kts 203°
2026-05-01 15:18 1.33678 103.98640 31 ft 21 kts 202°
2026-05-01 15:19 1.33265 103.98469 32 ft 21 kts 202°
2026-05-01 15:19 1.33019 103.98365 32 ft 16 kts 203°
2026-05-01 15:19 1.32944 103.98395 33 ft 12 kts 110°
2026-05-01 15:20 1.32931 103.98519 34 ft 7 kts 34°
2026-05-01 15:20 1.33006 103.98552 35 ft 27 kts 23°
2026-05-01 15:20 1.33361 103.98702 34 ft 86 kts 22°
2026-05-01 15:21 1.34092 103.99012 37 ft 140 kts 23°
2026-05-01 15:21 1.35129 103.99448 202 ft 172 kts 23°
2026-05-01 15:21 1.36258 103.99929 837 ft 182 kts 23°
2026-05-01 15:21 1.37428 104.00418 1589 ft 186 kts 24°
2026-05-01 15:22 1.39861 104.01447 3060 ft 194 kts 24°
2026-05-01 15:22 1.41145 104.01989 3641 ft 209 kts 24°
2026-05-01 15:22 1.42540 104.02580 4153 ft 227 kts 24°
2026-05-01 15:23 1.44058 104.03222 4693 ft 247 kts 24°
2026-05-01 15:23 1.45706 104.03919 5336 ft 267 kts 24°
2026-05-01 15:23 1.47478 104.04662 5985 ft 287 kts 22°
2026-05-01 15:23 1.49503 104.04935 6576 ft 308 kts 353°
2026-05-01 15:24 1.51578 104.04212 7093 ft 328 kts 333°
2026-05-01 15:24 1.53652 104.03098 7597 ft 348 kts 330°
2026-05-01 15:24 1.55800 104.01875 8268 ft 360 kts 331°
2026-05-01 15:24 1.58014 104.00667 9098 ft 366 kts 332°
2026-05-01 15:25 1.60279 103.99469 9920 ft 371 kts 332°
2026-05-01 15:25 1.62567 103.98244 10680 ft 375 kts 332°
2026-05-01 15:25 1.64873 103.96992 11437 ft 379 kts 332°
2026-05-01 15:25 1.67205 103.95728 12199 ft 383 kts 333°
2026-05-01 15:26 1.69565 103.94457 12974 ft 387 kts 333°
2026-05-01 15:26 1.71951 103.93173 13735 ft 392 kts 333°
2026-05-01 15:26 1.74337 103.91907 14386 ft 395 kts 336°
2026-05-01 15:26 1.76961 103.91137 15052 ft 395 kts 354°
2026-05-01 15:27 1.79708 103.90909 15705 ft 398 kts 358°
2026-05-01 15:27 1.82483 103.90743 16360 ft 401 kts 359°
2026-05-01 15:27 1.85285 103.90587 17001 ft 405 kts 358°
2026-05-01 15:28 1.90971 103.90213 18223 ft 413 kts 358°
2026-05-01 15:28 1.93852 103.90028 18722 ft 417 kts 358°
2026-05-01 15:28 1.96757 103.89848 19215 ft 420 kts 358°
2026-05-01 15:29 2.02645 103.89473 20194 ft 427 kts 358°
2026-05-01 15:29 2.05626 103.89282 20678 ft 431 kts 358°
2026-05-01 15:29 2.11656 103.88899 21634 ft 438 kts 358°
2026-05-01 15:30 2.17778 103.88508 22517 ft 444 kts 358°
2026-05-01 15:31 2.30293 103.87711 24093 ft 456 kts 358°
2026-05-01 15:31 2.36650 103.87563 24774 ft 457 kts
2026-05-01 15:32 2.42637 103.89554 25447 ft 456 kts 32°
2026-05-01 15:32 2.48060 103.92889 26094 ft 460 kts 33°
2026-05-01 15:33 2.56227 103.97986 27096 ft 467 kts 33°
2026-05-01 15:34 2.64558 104.03174 28133 ft 474 kts 33°